Weather History for CWYW - August, 2013

Change the Weather History Date:

Wednesday, August 14, 2013

  Actual Average Record
Temperature  
Mean Temperature 58 °F -  
Max Temperature 77 °F - - ()
Min Temperature 38 °F - - ()
Degree Days  
Heating Degree Days 8    
Growing Degree Days 8 (Base 50)    
Moisture  
Dew Point 44 °F    
Average Humidity 59    
Maximum Humidity 95    
Minimum Humidity 20    
Precipitation  
Precipitation 0.00 in - - ()
Sea Level Pressure  
Sea Level Pressure 30.04 in    
Wind  
Wind Speed 5 mph ()    
Max Wind Speed 13 mph    
Max Gust Speed 20 mph    
T = Trace of Precipitation, MM = Missing Value Source: Averaged Metar Reports

Daily Weather History Graph

Daily Weather History Graph

Search for Another Location

Airport or City:

Trip Planner

Search our weather history database for the weather conditions in past years. The results will help you decide how hot, cold, wet, or windy it might be!

Date:

Astronomy

Aug. 14, 2013 Rise Set
Actual Time 6:43 AM EDT 9:15 PM EDT
Civil Twilight 6:06 AM EDT 9:52 PM EDT
Nautical Twilight 5:20 AM EDT 10:38 PM EDT
Astronomical Twilight 4:25 AM EDT 11:32 PM EDT
Moon 3:35 PM EDT (8/14) 12:02 AM EDT (8/14)
Length of Visible Light 15h 45m
Length of Day
14h 32m
First Quarter, 52% of the Moon is Illuminated
Aug 14
First Quarter
Aug 20
Full
Aug 28
Last Quarter
Sep 5
New
Sep 12
First Quarter

Hourly Weather History & Observations

Time (EDT) Temp. Dew Point Humidity Pressure Visibility Wind Dir Wind Speed Gust Speed Precip Events Conditions
12:00 AM 44.6 °F 42.3 °F 91% 30.13 in - Calm Calm - N/A   Unknown
1:00 AM 42.3 °F 40.1 °F 92% 30.12 in - NE 1.2 mph - N/A   Unknown
2:00 AM 41 °F 40 °F 93% 30.12 in - ESE 1.2 mph - -  
2:00 AM 41.4 °F 39.9 °F 95% 30.12 in - ESE 1.2 mph - N/A   Unknown
3:00 AM 39.6 °F 37.8 °F 93% 30.11 in - North 1.2 mph - N/A   Unknown
4:00 AM 40.1 °F 38.8 °F 95% 30.11 in - WNW 1.2 mph - N/A   Unknown
5:00 AM 42 °F 40 °F 91% 30.10 in - NW 2.3 mph - -  
5:00 AM 41.7 °F 40.3 °F 95% 30.10 in - NNW 2.3 mph - N/A   Unknown
6:00 AM 50.5 °F 46.4 °F 86% 30.09 in - West 6.9 mph - N/A   Unknown
7:00 AM 51.1 °F 45.7 °F 82% 30.10 in - West 6.9 mph - N/A   Unknown
8:00 AM 53 °F 46 °F 70% 30.10 in - West 5.8 mph - -  
8:00 AM 52.9 °F 46.0 °F 78% 30.09 in - West 6.9 mph - N/A   Unknown
9:00 AM 56.3 °F 46.8 °F 70% 30.09 in - WNW 6.9 mph - N/A   Unknown
10:00 AM 61.7 °F 46.9 °F 58% 30.08 in - WNW 10.4 mph - N/A   Unknown
11:00 AM 66 °F 47 °F 39% 30.06 in - West 10.4 mph - -  
11:00 AM 66.4 °F 47.1 °F 50% 30.06 in - WNW 10.4 mph 19.6 mph N/A   Unknown
12:00 PM 69.4 °F 46.8 °F 44% 30.06 in - West 9.2 mph - N/A   Unknown
1:00 PM 71.2 °F 46.6 °F 41% 30.04 in - NW 9.2 mph 18.4 mph N/A   Unknown
2:00 PM 73 °F 46 °F 26% 30.02 in - NW 10.4 mph - -  
2:00 PM 72.7 °F 45.5 °F 38% 30.02 in - NW 10.4 mph 17.3 mph N/A   Unknown
4:00 PM 75.9 °F 43.7 °F 32% 29.99 in - NW 8.1 mph 18.4 mph N/A   Unknown
5:00 PM 76 °F 43 °F 20% 29.99 in - WNW 10.4 mph - -  
5:00 PM 76.1 °F 42.8 °F 30% 29.99 in - WNW 10.4 mph 18.4 mph N/A   Unknown
6:00 PM 75.4 °F 43.0 °F 31% 29.97 in - WNW 10.4 mph 18.4 mph N/A   Unknown
7:00 PM 74.3 °F 43.3 °F 33% 29.96 in - West 12.7 mph - N/A   Unknown
8:00 PM 72 °F 44 °F 26% 29.95 in - WNW 6.9 mph - -  
8:00 PM 71.8 °F 44.2 °F 37% 29.95 in - WNW 8.1 mph - N/A   Unknown
9:00 PM 66.9 °F 45.1 °F 45% 29.95 in - West 4.6 mph - N/A   Unknown
10:00 PM 64.4 °F 46.4 °F 52% 29.96 in - West 10.4 mph - N/A   Unknown
11:00 PM 64 °F 48 °F 45% 29.96 in - West 9.2 mph - -  
11:00 PM 64.4 °F 48.0 °F 55% 29.96 in - West 9.2 mph - N/A   Unknown